DateTimeUTC,F1_A11,F1_S11,BsB_S11,BsG_S11,BsR_S11,BbsB_S11,BbsG_S11,BbsR_S11,BaB_A11,BaG_A11,BaR_A11,Tu_S11,T_S11,Uu_S11,U_S11,P_S11,T1_A11
2021-09-04T01:00:00Z,00000200,20000000,,,,,,,-000.32,-000.17,-000.38,18.6,25.5,03.2,02.1,0667.5,31.0
2021-09-04T01:01:00Z,00000200,20000000,,,,,,,0000.43,0000.04,0000.59,18.6,25.5,03.2,02.1,0667.5,31.0
2021-09-04T01:02:00Z,00000200,20000000,,,,,,,-000.05,0000.14,-000.26,18.6,25.5,03.2,02.1,0667.5,31.0
2021-09-04T01:03:00Z,00000200,60000000,,,,,,,0000.04,-000.09,-000.05,18.6,25.5,03.2,02.1,0667.5,31.0
2021-09-04T01:04:00Z,00000200,40000000,0001.40,0000.83,0000.01,-000.04,0000.17,0000.06,-000.06,0000.02,0000.21,18.7,25.2,03.0,02.0,0668.4,31.0
2021-09-04T01:05:00Z,00000200,00000000,0000.99,0000.72,0000.30,0000.26,0000.02,-000.00,0000.16,0000.07,0000.03,18.7,25.2,02.9,02.0,0668.4,31.0
2021-09-04T01:06:00Z,00000200,00000000,0001.58,0000.80,0000.14,0000.04,-000.10,0000.01,0000.08,0000.20,0000.07,18.7,25.2,02.9,01.9,0668.4,31.0
2021-09-04T01:07:00Z,00000200,00000000,0001.65,0000.61,0000.11,-000.11,0000.04,-000.08,0000.55,0000.04,0000.30,18.7,25.2,02.9,02.0,0668.4,31.0
2021-09-04T01:08:00Z,00000200,00000000,0001.17,0000.85,0000.39,0000.29,0000.25,-000.04,-000.10,0000.31,-000.00,18.7,25.1,02.9,01.9,0668.4,31.0
2021-09-04T01:09:00Z,00000200,00000000,0001.31,0000.17,0000.41,0000.00,-000.09,0000.18,-000.11,-000.12,-000.06,18.7,25.1,02.9,01.9,0668.3,31.0
2021-09-04T01:10:00Z,00000200,00000000,0000.48,0000.72,-000.00,0000.06,0000.28,-000.09,0000.39,0000.39,0000.35,18.7,25.1,02.8,01.9,0668.4,31.0
2021-09-04T01:11:00Z,00000200,00000000,0001.77,0000.66,0000.16,0000.58,0000.15,-000.06,0000.36,0000.44,-000.23,18.7,25.1,02.9,02.0,0668.3,31.0
2021-09-04T01:12:00Z,00000200,00000000,0001.73,0000.44,0000.37,0000.36,0000.06,0000.09,0000.25,0000.13,0000.56,18.7,25.1,02.8,01.9,0668.3,31.0
2021-09-04T01:13:00Z,00000200,00000000,0001.26,0000.87,0000.61,0000.27,0000.38,0000.33,0000.19,-000.12,0000.12,18.7,25.1,02.8,01.9,0668.3,31.0
2021-09-04T01:14:00Z,00000200,00000000,0001.08,0000.28,0000.52,-000.32,0000.05,0000.14,-000.01,0000.43,0000.31,18.8,25.1,02.7,01.9,0668.4,31.0
2021-09-04T01:15:00Z,00000200,00000000,0001.11,0000.43,0000.26,0000.35,-000.11,0000.03,0000.01,0000.45,0000.10,18.9,25.2,02.7,01.8,0668.3,31.1
2021-09-04T01:16:00Z,00000200,00000000,0000.75,0000.69,-000.06,0000.13,0000.19,-000.11,0000.43,-000.11,0000.18,19.0,25.2,02.7,01.9,0668.4,31.1
2021-09-04T01:17:00Z,00000200,00000000,0001.27,0000.78,0000.23,0000.29,-000.05,0000.21,0000.25,0000.08,-000.23,19.0,25.3,02.7,01.9,0668.4,31.1
2021-09-04T01:18:00Z,00000200,00000000,0001.75,0000.64,0000.54,0000.45,0000.03,0000.36,0000.08,0000.70,0000.17,19.1,25.3,02.6,01.8,0668.3,31.1
2021-09-04T01:19:00Z,00000200,00000000,0001.27,0000.75,0000.45,0000.03,0000.29,0000.32,0000.11,-000.40,-000.01,19.1,25.3,02.6,01.8,0668.3,31.1
2021-09-04T01:20:00Z,00000200,00000000,0001.32,0000.58,0000.31,0000.26,-000.05,0000.13,0000.20,0000.44,0000.14,19.0,25.3,02.6,01.8,0668.3,31.1
2021-09-04T01:21:00Z,00000200,00000000,0001.38,0000.47,0000.27,0000.27,0000.43,-000.13,0000.33,-000.12,0000.13,19.0,25.2,02.7,01.8,0668.3,31.1
2021-09-04T01:22:00Z,00000200,00000000,0001.23,0001.05,0000.48,0000.36,-000.03,0000.32,0000.15,0000.39,0000.33,19.0,25.2,02.7,01.8,0668.3,31.0
2021-09-04T01:23:00Z,00000200,00000000,0001.06,0001.01,0000.52,0000.00,0000.15,-000.20,0000.05,0000.08,0000.09,18.9,25.2,02.6,01.8,0668.3,31.0
2021-09-04T01:24:00Z,00000200,00000000,0001.23,0000.42,0000.47,-000.04,-000.06,0000.14,0000.47,0000.15,0000.07,18.9,25.2,02.6,01.8,0668.3,31.0
2021-09-04T01:25:00Z,00000200,00000000,0001.08,0000.48,0000.54,-000.04,0000.07,0000.29,0000.14,0000.33,0000.07,18.9,25.2,02.6,01.8,0668.3,31.0
2021-09-04T01:26:00Z,00000200,00000000,0001.53,0001.13,0000.35,-000.25,0000.46,0000.08,0000.39,0000.19,0000.40,18.9,25.2,02.6,01.8,0668.3,31.0
2021-09-04T01:27:00Z,00000200,00000000,0001.43,0000.78,0000.29,0000.41,0000.18,0000.44,0000.05,0000.21,-000.01,18.9,25.2,02.7,01.8,0668.3,31.0
2021-09-04T01:28:00Z,00000200,00000000,0000.91,0000.42,0000.31,0000.23,-000.01,-000.20,0000.21,0000.51,0000.47,18.9,25.2,02.7,01.8,0668.3,31.0
2021-09-04T01:29:00Z,00000200,00000000,0001.51,0000.71,0000.15,-000.13,0000.43,0000.33,0000.41,0000.12,0000.07,19.0,25.2,02.6,01.8,0668.3,31.0
2021-09-04T01:30:00Z,00000200,00000000,0001.68,0000.81,0000.60,0000.63,-000.09,0000.01,0000.27,0000.08,0000.27,19.1,25.3,02.7,01.8,0668.3,31.1
2021-09-04T01:31:00Z,00000200,00000000,0001.89,0001.07,0000.78,-000.31,0000.07,0000.38,0000.16,0000.17,0000.01,19.1,25.3,02.6,01.8,0668.3,31.1
2021-09-04T01:32:00Z,00000200,00000000,0001.10,0000.86,0000.47,0000.10,-000.01,-000.07,0000.24,0000.23,0000.06,19.1,25.3,02.6,01.8,0668.2,31.1
2021-09-04T01:33:00Z,00000200,00000000,0001.14,0000.91,0000.61,0000.86,0000.23,0000.18,-000.03,-000.02,0000.32,19.1,25.3,02.7,01.8,0668.2,31.1
2021-09-04T01:34:00Z,00000200,00000000,0001.23,0000.68,0000.49,0000.56,0000.29,0000.12,0000.59,0000.44,-000.20,19.1,25.3,02.6,01.8,0668.2,31.1
2021-09-04T01:35:00Z,00000200,00000000,0001.16,0000.93,0000.37,0000.03,0000.10,0000.09,0000.02,0000.30,0000.50,19.0,25.3,02.7,01.8,0668.2,31.0
2021-09-04T01:36:00Z,00000200,00000000,0001.13,0000.97,0000.51,-000.08,0000.44,0000.08,0000.14,0000.00,-000.01,19.0,25.3,02.7,01.8,0668.2,31.0
2021-09-04T01:37:00Z,00000200,00000000,0002.00,0001.02,0000.47,0000.64,-000.07,-000.18,0000.35,0000.18,0000.28,19.0,25.2,02.7,01.9,0668.2,31.0
2021-09-04T01:38:00Z,00000200,00000000,0001.20,0000.90,0000.41,0000.67,0000.24,0000.06,0000.18,0000.43,-000.04,19.0,25.2,02.7,01.8,0668.2,31.0
2021-09-04T01:39:00Z,00000200,00000000,0001.31,0000.75,0000.41,0000.16,0000.05,-000.02,0000.00,0000.13,0000.13,18.9,25.2,02.7,01.8,0668.2,31.0
2021-09-04T01:40:00Z,00000200,00000000,0001.96,0000.83,0000.71,-000.09,0000.07,0000.45,0000.52,-000.20,0000.02,18.9,25.2,02.6,01.8,0668.2,31.0
2021-09-04T01:41:00Z,00000200,00000000,0001.83,0001.12,0000.14,-000.10,0000.36,0000.02,-000.02,0000.21,0000.06,18.9,25.2,02.6,01.8,0668.2,31.0
2021-09-04T01:42:00Z,00000200,00000000,0001.64,0000.79,0000.30,0000.48,0000.37,0000.40,0000.43,0000.62,0000.22,18.9,25.2,02.6,01.8,0668.2,31.0
2021-09-04T01:43:00Z,00000200,00000000,0001.73,0000.62,0000.32,0000.47,0000.21,-000.05,0000.21,-000.08,0000.36,18.9,25.2,02.5,01.7,0668.2,31.0
2021-09-04T01:44:00Z,00000200,00000000,0000.63,0000.99,0000.58,0000.69,0000.09,0000.11,0000.30,0000.24,-000.12,18.8,25.1,02.6,01.7,0668.2,31.0
2021-09-04T01:45:00Z,00000200,00000000,0001.54,0000.92,0000.65,0001.10,0000.45,0000.52,-000.05,-000.06,0000.42,18.8,25.1,02.5,01.7,0668.1,31.0
2021-09-04T01:46:00Z,00000200,00000000,0001.68,0001.16,0000.83,0000.17,0000.45,0000.12,0000.24,0000.46,-000.03,18.8,25.1,02.5,01.7,0668.1,31.0
2021-09-04T01:47:00Z,00000200,00010000,0001.78,0000.61,0000.37,0000.45,0000.36,-000.01,0000.18,0000.31,0000.21,18.8,25.1,02.5,01.7,0668.1,31.0
2021-09-04T01:48:00Z,00000200,00000000,0001.06,0000.77,0000.14,0000.32,-000.09,0000.18,0000.24,-000.02,0000.46,18.8,25.1,02.4,01.7,0668.1,31.0
2021-09-04T01:49:00Z,00000200,00000000,0001.56,0000.74,0000.19,0000.40,-000.05,-000.06,-000.01,0000.12,-000.20,18.8,25.1,02.5,01.7,0668.1,31.0
2021-09-04T01:50:00Z,00000200,00000000,0001.08,0001.08,0000.72,0000.50,0000.48,0000.15,0000.35,0000.25,0000.28,18.7,25.1,02.4,01.6,0668.1,31.0
2021-09-04T01:51:00Z,00000200,00000000,0002.02,0001.04,0000.66,0000.39,0000.24,0000.26,0000.13,0000.32,-000.08,18.7,25.1,02.3,01.6,0668.1,31.0
2021-09-04T01:52:00Z,00000200,00000000,0001.51,0001.30,0000.56,-000.01,0000.10,0000.09,0000.49,-000.18,0000.53,18.7,25.1,02.3,01.5,0668.1,31.0
2021-09-04T01:53:00Z,00000200,00000000,0001.57,0000.91,0000.51,0000.19,-000.07,0000.21,0000.01,0000.08,-000.07,18.7,25.1,02.3,01.5,0668.1,31.0
2021-09-04T01:54:00Z,00000200,00000000,0001.93,0001.02,0000.29,0000.63,0000.20,0000.05,-000.06,0000.40,-000.05,18.7,25.0,02.3,01.5,0668.1,31.0
2021-09-04T01:55:00Z,00000200,00000000,0001.29,0000.92,0000.60,0000.29,0000.11,0000.19,0000.38,0000.35,0000.06,18.7,25.0,02.2,01.5,0668.0,31.0
2021-09-04T01:56:00Z,00000200,00000000,0001.03,0000.83,0000.43,0000.26,0000.19,0000.33,0000.48,0000.22,0000.62,18.7,25.0,02.3,01.5,0668.0,31.0
2021-09-04T01:57:00Z,00000200,40000000,,,,,,,0000.42,0000.48,0000.26,18.7,25.0,02.5,01.7,0668.0,31.0
2021-09-04T01:58:00Z,00000200,60000000,,,,,,,-000.20,-000.19,-000.06,18.4,25.2,02.3,01.5,0667.0,31.0
2021-09-04T01:59:00Z,00000200,20000000,,,,,,,0000.20,0000.01,-000.05,18.4,25.3,02.3,01.5,0667.0,31.0
